Stations météo

réclame
Mon MeteoGroup
Örskär, Suède (2488): Température de l'air & dewpoint: 14.06.2018 07:00:00 - 20.06.2018 07:00:00 (CEST)Örskär, Suède (2488): reduced air pressure: 14.06.2018 07:00:00 - 20.06.2018 07:00:00 (CEST)Örskär, Suède (2488): visibility: 14.06.2018 07:00:00 - 20.06.2018 07:00:00 (CEST)Örskär, Suède (2488): Quantités de précipitations: 14.06.2018 07:00:00 - 20.06.2018 07:00:00 (CEST)
Date & Time tt [°C] td [°C] ppp [hPa] vv [km] rr [mm]
20.06.2018 07:00:00 14,2 5,3 1007,8 49 0,0
20.06.2018 06:00:00 13,8 6,4 1007,2 45 0,0
20.06.2018 05:00:00 13,4 7,6 1006,7 38 0,0
20.06.2018 04:00:00 13,5 7,9 1006,1 43 0,0
20.06.2018 03:00:00 13,8 8,2 1005,8 42 0,0
20.06.2018 02:00:00 14,1 8,5 1005,3 35 0,0
20.06.2018 01:00:00 14,8 8,1 1004,8 37 0,0
20.06.2018 00:00:00 15,5 8,0 1004,4 36 0,0
19.06.2018 23:00:00 16,3 7,8 1004,1 38 0,0
19.06.2018 22:00:00 17,6 6,8 1003,4 50 0,0
19.06.2018 21:00:00 18,1 7,2 1002,7 48 0,0
19.06.2018 20:00:00 18,7 7,2 1002,4 41 0,0
19.06.2018 19:00:00 18,7 7,8 1002,1 45 0,0
19.06.2018 18:00:00 19,0 4,7 1001,9 41 0,0
19.06.2018 17:00:00 18,3 7,1 1001,7 39 0,0
19.06.2018 16:00:00 19,0 6,1 1001,1 35 0,0
19.06.2018 15:00:00 18,3 6,2 1000,6 42 0,0
19.06.2018 14:00:00 18,5 5,3 999,9 34 0,0
19.06.2018 13:00:00 18,0 8,0 999,3 39 0,3
19.06.2018 12:00:00 17,6 7,9 999,3 41 0,0
19.06.2018 11:00:00 17,0 7,6 999,3 25 0,0
19.06.2018 10:00:00 15,2 8,4 999,7 24 0,0
19.06.2018 09:00:00 14,7 8,2 1000,0 30 0,0
19.06.2018 08:00:00 14,3 9,3 1000,7 40 0,0
19.06.2018 07:00:00 14,6 9,4 1001,2 43 0,0
19.06.2018 06:00:00 14,7 10,5 1001,9 50 0,0
19.06.2018 05:00:00 14,7 11,1 1002,5 50 0,0
19.06.2018 04:00:00 16,1 10,5 1003,0 50 0,0
19.06.2018 03:00:00 15,9 10,5 1004,1 47 0,0
19.06.2018 02:00:00 15,9 9,8 1005,3 50 0,0
19.06.2018 01:00:00 - - - - -
19.06.2018 00:00:00 15,6 9,9 1007,0 50 0,0
18.06.2018 23:00:00 16,0 9,9 1007,9 50 0,0
18.06.2018 22:00:00 16,4 10,0 1008,1 50 0,0
18.06.2018 21:00:00 17,5 9,6 1008,1 50 0,0
18.06.2018 20:00:00 18,0 9,1 1008,0 50 0,0
18.06.2018 19:00:00 19,5 8,8 1008,1 45 0,0
18.06.2018 18:00:00 18,9 9,7 1008,4 43 0,0
18.06.2018 17:00:00 19,0 10,5 1009,0 43 0,0
18.06.2018 16:00:00 18,1 10,5 1009,4 37 0,0
18.06.2018 15:00:00 18,4 10,0 1009,8 30 0,0
18.06.2018 14:00:00 17,2 9,6 1010,1 39 0,0
18.06.2018 13:00:00 17,1 9,8 1010,0 42 0,0
18.06.2018 12:00:00 16,9 9,1 1009,9 41 0,0
18.06.2018 11:00:00 15,5 8,9 1009,8 40 0,0
18.06.2018 10:00:00 15,3 9,4 1009,6 47 0,0
18.06.2018 09:00:00 13,9 9,1 1009,6 49 0,0
18.06.2018 08:00:00 13,9 9,7 1009,1 35 0,0
18.06.2018 07:00:00 13,1 9,5 1009,0 41 0,0
18.06.2018 06:00:00 12,9 9,7 1008,8 43 0,0
18.06.2018 05:00:00 12,9 10,3 1008,7 39 0,0
18.06.2018 04:00:00 13,0 10,7 1008,7 44 0,0
18.06.2018 03:00:00 13,4 10,9 1008,6 50 0,0
18.06.2018 02:00:00 14,3 13,2 1008,5 15 0,0
18.06.2018 01:00:00 14,0 13,4 1008,3 10 0,0
18.06.2018 00:00:00 13,4 12,6 1008,3 10 0,0
17.06.2018 23:00:00 13,8 13,0 1009,2 12 0,7
17.06.2018 22:00:00 13,9 12,6 1009,4 14 0,4
17.06.2018 21:00:00 14,3 11,8 1010,4 42 0,0
17.06.2018 20:00:00 14,2 12,1 1011,0 31 0,2
17.06.2018 19:00:00 14,5 12,2 1011,5 21 0,5
17.06.2018 18:00:00 16,0 10,1 1012,0 50 0,0
17.06.2018 17:00:00 16,4 10,0 1012,2 46 0,0
17.06.2018 16:00:00 16,9 9,1 1012,6 49 0,0
17.06.2018 15:00:00 19,2 8,8 1012,9 36 0,0
17.06.2018 14:00:00 18,6 9,4 1013,5 43 0,0
17.06.2018 13:00:00 19,1 8,1 1014,3 32 0,0
17.06.2018 12:00:00 19,3 9,2 1014,8 39 0,0
17.06.2018 11:00:00 18,3 9,1 1015,4 31 0,0
17.06.2018 10:00:00 17,4 10,5 1015,8 50 0,0
17.06.2018 09:00:00 18,6 9,1 1016,0 46 0,0
17.06.2018 08:00:00 18,0 9,1 1016,0 40 0,0
17.06.2018 07:00:00 16,1 8,8 1016,2 48 0,0
17.06.2018 06:00:00 15,0 8,5 1016,4 46 0,0
17.06.2018 05:00:00 14,3 8,0 1016,5 47 0,0
17.06.2018 04:00:00 13,9 7,9 1016,4 50 0,0
17.06.2018 03:00:00 14,5 7,3 1016,5 50 0,0
17.06.2018 02:00:00 15,2 6,7 1016,5 50 0,0
17.06.2018 01:00:00 15,9 6,9 1016,5 50 0,0
17.06.2018 00:00:00 16,1 6,8 1016,7 50 0,0
16.06.2018 23:00:00 - - - - -
16.06.2018 22:00:00 15,0 8,7 1016,3 50 0,0
16.06.2018 21:00:00 16,8 10,2 1016,0 50 0,0
16.06.2018 20:00:00 17,2 10,1 1016,2 41 0,0
16.06.2018 19:00:00 17,6 10,0 1015,9 45 0,0
16.06.2018 18:00:00 18,2 8,5 1015,9 50 0,0
16.06.2018 17:00:00 19,1 6,6 1016,0 41 0,0
16.06.2018 16:00:00 21,1 5,4 1016,1 42 0,0
16.06.2018 15:00:00 20,9 7,2 1016,0 29 0,0
16.06.2018 14:00:00 21,3 6,4 1016,2 32 0,0
16.06.2018 13:00:00 20,5 6,8 1016,3 47 0,0
16.06.2018 12:00:00 19,9 6,3 1016,4 41 0,0
16.06.2018 11:00:00 18,3 7,4 1016,4 41 0,0
16.06.2018 10:00:00 17,6 7,6 1016,2 45 0,0
16.06.2018 09:00:00 16,6 9,3 1016,1 35 0,0
16.06.2018 08:00:00 15,5 8,0 1016,0 39 0,0
16.06.2018 07:00:00 14,7 7,7 1015,9 34 0,0
16.06.2018 06:00:00 13,9 7,2 1015,7 37 0,0
16.06.2018 05:00:00 13,4 6,9 1015,3 43 0,0
16.06.2018 04:00:00 13,3 5,9 1015,1 50 0,0
16.06.2018 03:00:00 13,6 6,2 1014,9 50 0,0
16.06.2018 02:00:00 14,2 5,4 1014,5 50 0,0
16.06.2018 01:00:00 14,9 7,0 1014,1 50 0,0
16.06.2018 00:00:00 15,4 6,9 1013,7 50 0,0
15.06.2018 23:00:00 16,2 7,7 1013,4 50 0,0
15.06.2018 22:00:00 17,3 6,5 1013,0 50 0,0
15.06.2018 21:00:00 18,1 7,5 1012,4 50 0,0
15.06.2018 20:00:00 19,0 7,4 1011,9 50 0,0
15.06.2018 19:00:00 20,2 6,2 1011,5 43 0,0
15.06.2018 18:00:00 19,8 6,5 1011,0 39 0,0
15.06.2018 17:00:00 20,9 6,4 1010,5 30 0,0
15.06.2018 16:00:00 20,4 6,0 1010,1 42 0,0
15.06.2018 15:00:00 21,0 5,8 1009,6 37 0,0
15.06.2018 14:00:00 21,0 5,8 1009,1 30 0,0
15.06.2018 13:00:00 20,7 5,9 1008,6 37 0,0
15.06.2018 12:00:00 20,4 7,1 1008,3 34 0,0
15.06.2018 11:00:00 19,3 7,1 1007,9 31 0,0
15.06.2018 10:00:00 18,7 7,5 1007,4 30 0,0
15.06.2018 09:00:00 17,8 9,0 1006,9 32 0,0
15.06.2018 08:00:00 16,7 10,8 1006,5 34 0,0
15.06.2018 07:00:00 16,7 10,8 1006,1 40 0,0
15.06.2018 06:00:00 16,1 11,3 1005,9 48 0,0
15.06.2018 05:00:00 16,2 11,1 1005,4 49 0,0
15.06.2018 04:00:00 15,7 11,7 1005,3 42 0,0
15.06.2018 03:00:00 16,5 10,8 1005,1 42 0,0
15.06.2018 02:00:00 17,2 10,8 1005,2 46 0,0
15.06.2018 01:00:00 17,3 11,4 1005,4 50 0,0
15.06.2018 00:00:00 17,7 12,2 1005,6 50 0,0
14.06.2018 23:00:00 17,4 12,1 1005,9 50 0,0
14.06.2018 22:00:00 17,4 12,3 1006,1 50 0,0
14.06.2018 21:00:00 17,8 12,0 1005,8 49 0,0
14.06.2018 20:00:00 19,6 11,9 1005,6 49 0,0
14.06.2018 19:00:00 19,8 11,8 1005,6 45 0,0
14.06.2018 18:00:00 20,5 11,1 1005,7 47 0,0
14.06.2018 17:00:00 20,7 11,1 1006,1 50 0,0
14.06.2018 16:00:00 21,5 10,3 1006,4 43 0,0
14.06.2018 15:00:00 18,9 10,7 1007,3 38 0,0
14.06.2018 14:00:00 19,0 10,3 1007,8 43 0,0
14.06.2018 13:00:00 19,5 11,0 1008,5 50 0,0
14.06.2018 12:00:00 18,8 10,1 1008,9 50 0,0
14.06.2018 11:00:00 18,6 9,9 1009,2 37 0,0
14.06.2018 10:00:00 16,0 9,4 1009,6 48 0,0
14.06.2018 09:00:00 15,6 8,1 1009,8 50 0,0
14.06.2018 08:00:00 15,3 8,1 1010,0 50 0,0
14.06.2018 07:00:00 14,7 8,0 1009,7 50 0,0

tt = Température de l'air
td = dewpoint
ppp = reduced air pressure
vv = visibility
rr = Quantités de précipitations

stations d'obs. à proximité